Location: ??
(34.9170°N, 135.5016°E)
Time: 00:43:16
(UTC+00:00)

RS-15 - Pass Details

Date: 28 April 2021
Orbit: 1888 x 2157 km, 64.8° (Epoch: 12 May)

Event Time Altitude Azimuth Distance (km) Brightness Sun altitude
Rises 19:08:15 0° 321° (NW) 5,600 10.3 -12.5°
Reaches altitude 10° 19:12:12 10° 311° (NW) 4,623 9.8 -11.7°
Maximum altitude 19:22:03 31° 257° (WSW) 3,282 8.7 -9.9°
Drops below altitude 10° 19:32:03 10° 201° (SSW) 4,658 9.6 -8.1°
Sets 19:36:07 0° 191° (S) 5,647 10.1 -7.3°
